Location: Amberg
(48.0613°N, 10.6820°E)
Time: 03:20:07
(UTC+00:00)

IRAS Rocket - Pass Details

Date: 18 November 2025
Orbit: 845 x 876 km, 100.1° (Epoch: 04 December)

Event Time Altitude Azimuth Distance (km) Brightness Sun altitude
Rises 17:34:40 0° 162° (SSE) 3,436 7.3 -19.6°
Reaches altitude 10° 17:37:02 10° 162° (SSE) 2,498 6.5 -20.0°
Maximum altitude 17:42:35 88° 254° (WSW) 866 4.2 -20.9°
Drops below altitude 10° 17:48:08 10° 343° (NNW) 2,495 6.8 -21.8°
Sets 17:50:31 0° 344° (NNW) 3,431 7.5 -22.2°
